フルス彗星

C/2017 U2 ( Fuls )

English version
Home page
Updated on February 13, 2018

---------------------------------------------------------------------

・ プロフィール

発見日 2017年10月22日
発見光度 21.2等
発見者 D. C. Fuls (Mount Lemmon)

・ 軌道要素

Epoch 2017 Sept. 4.0 TT = JDT 2458000.5
T 2017 Aug. 29.32975 TT                                 MPCW
q   6.7018984            (2000.0)            P               Q
z  -0.0001868      Peri.  147.82277     +0.75630141     +0.41933697
 +/-0.0002064      Node   149.70629     -0.56259706     +0.02511881
e   1.0012519      Incl.   95.44113     +0.33390526     -0.90748308
From 45 observations 2017 Sept. 8-Oct. 28, mean residual 0".5.

・ 光度変化

        m1 = 8.5 + 5 logΔ + 10.0 log r

---------------------------------------------------------------------

軌道要素はM.P.E.C. 2018-B155に掲載されたものです。
光度グラフはComet for Windowsで作成したものです。

---------------------------------------------------------------------

Copyright(C) Seiichi Yoshida (comet@aerith.net). All rights reserved.